Location: Fort Worth, Tx
(32.7431°N, 97.3695°W)
Time: 04:55:23
(UTC-05:00)

Altair - Pass Details

Date: 03 October 2023
Orbit: 1501 x 1682 km, 47.2° (Epoch: 06 December)

Event Time Altitude Azimuth Distance (km) Brightness Sun altitude
Rises 01:21:51 0° 195° (SSW) 4,663 - -58.2°
Reaches altitude 10° 01:25:18 10° 185° (S) 3,705 - -58.5°
Maximum altitude 01:33:13 31° 127° (SE) 2,478 - -59.2°
Drops below altitude 10° 01:41:21 10° 70° (ENE) 3,838 - -59.8°
Sets 01:44:57 0° 61° (ENE) 4,854 - -60.1°
